Location: Cahas Mountain Overlook
(37.0833°N, 80.1000°W)
Time: 03:58:09
(UTC-05:00)

Vanguard 2 - Visible Passes

Search period start: 15 February 2026 00:00
Search period end: 25 February 2026 00:00
Orbit: 553 x 2897 km, 32.9° (Epoch: 14 February)

Date Brightness Start Highest point End Pass type
(mag) Time Alt. Az. Time Alt. Az. Time Alt. Az.
15 Feb 10.0 04:56:38 10° S 04:59:04 13° SSE 05:01:12 10° SE visible
16 Feb 9.6 05:07:51 12° SSW 05:11:03 18° SSE 05:14:17 10° ESE visible
17 Feb 9.2 05:19:27 15° SSW 05:23:01 24° SSE 05:26:46 10° ESE visible
18 Feb 8.9 05:30:58 16° SW 05:34:59 31° SSE 05:39:01 10° ESE visible
19 Feb 10.3 03:41:26 15° SE 03:41:26 15° SE 03:42:56 10° ESE visible
19 Feb 8.5 05:42:24 15° SW 05:46:57 38° SSE 05:51:07 10° E visible
20 Feb 9.9 03:52:48 21° SE 03:52:48 21° SE 03:55:33 10° ESE visible
20 Feb 8.3 05:53:45 14° WSW 05:58:54 45° S 06:03:10 10° E visible
21 Feb 9.4 04:04:07 29° SE 04:04:07 29° SE 04:07:54 10° ESE visible
21 Feb 8.1 06:05:03 12° WSW 06:10:52 51° S 06:15:09 10° E visible
22 Feb 9.0 04:15:22 38° SSE 04:15:22 38° SSE 04:20:04 10° E visible
22 Feb 8.0 06:16:31 10° WSW 06:22:48 54° S 06:27:06 10° ESE visible
23 Feb 8.7 04:26:34 46° S 04:26:44 46° SSE 04:32:08 10° E visible
23 Feb 7.9 06:28:29 10° W 06:34:44 55° S 06:39:02 10° ESE visible
24 Feb 8.5 04:37:43 49° SSW 04:38:42 53° S 04:44:09 10° E visible
